Retour au catalogue

COSMOS 1328

ActifMilitairePO
NORAD 12987·PAYLOAD·🇷🇺 Russia

Lancé Dec 3, 1981 depuis Plesetsk Cosmodrome

Loading…

Prochains Passages (prochaines 24 heures)

TLE

FraisSource: Space-Track

Époque: Sep 14, 2026, 17:04 UTC

1 12987U 81117A   26257.71129075  .00008440  00000-0  23062-3 0  9991
2 12987  82.4913 157.8247 0008332 216.9917 143.0754 15.37192165443062

Suivez COSMOS 1328 en temps réel avec AllMySat

Download on the App Store